Akron Fulton International Airport
KAKR : now visible

Airfield :











YOU CAN JOIN US ON...

 
LOGIN :

Register | Disclaimer

   EN    FR    IT 

 









Legend :    VFR   Marginal VFR   IFR   Intensive IFR   Very Intensive IFR
Visi :
Ceiling :
>= 8 km
>= 3000ft
5 to 8 km
1000 to 3000 ft
1500m to 5 km
500 to 1000 ft
800 to 1500m
200 to 500 ft
< 800m
< 200 ft
Symbols :   Thunderstorms  Fog  Heavy snow  Heavy precipitations  Wind > 20 kt






- Airport Elevation : 1067 ft


KAKR - Akron Fulton International

CURRENT METAR :
  • 141054Z AUTO 31004KT 10SM BKN070 22/14 A2991 RMK AO2 SLP117 T02220144

EXPIRED METARs :
  • 140954Z AUTO 23006KT 10SM BKN065 BKN110 21/15 A2991 RMK AO2 SLP120 T02060150
  • 140854Z AUTO 21004KT 10SM OVC095 21/15 A2989 RMK AO2 SLP111 T02060150 55003
  • 140754Z AUTO 00000KT 10SM SCT090 21/14 A2989 RMK AO2 SLP110 T02060144
  • 140654Z AUTO 00000KT 10SM CLR 22/14 A2989 RMK AO2 SLP113 T02170144

TAF N/A
KZOB FIR / North America



MET'MAP, your aeronautical weather chart ! - Copyright ORBIFLY December 2007 - Disclaimer

ORBIFLY MET'MAP TEAM :

Programming & Development : Alexandra Zaïnal
Original concept : Baudouin d'Aumeries
Technical & hardware support : Manuel Goepfert
Assistance : Marc-Olivier Méhu




SOURCES & CREDITS :

   NOAA       Earth
Advisory